KC5EZZ-2 Weather Reports


time (UTC)temp
C
wind
direction
speed
KPH
gust
KPH
rain 1hr
cm
rain 24hr
cm
rain mn
cm
humidity
%
barometer
mb
20260504130558 19 218 11.3 11.3 0.00 0.00 0.00
20260504110544 15 173 9.7 11.3 0.00 0.00 0.00
20260504100538 15 139 0.0 0.0 0.00 0.00 0.00
20260504081528 16 155 9.7 8.0 0.00 0.00 0.00
20260504081026 16 145 6.4 6.4 0.00 0.00 0.00
20260504080526 16 159 4.8 6.4 0.00 0.00 0.00
20260504050507 18 118 8.0 8.0 0.00 0.00 0.00
20260504050007 18 136 9.7 8.0 0.00 0.00 0.00
20260504045505 18 135 9.7 6.4 0.00 0.00 0.00
20260504045005 18 127 8.0 9.7 0.00 0.00 0.00
20260504044505 18 127 8.0 11.3 0.00 0.00 0.00
20260504044003 18 139 6.4 6.4 0.00 0.00 0.00
20260504043503 18 152 6.4 6.4 0.00 0.00 0.00
20260504043004 18 146 8.0 8.0 0.00 0.00 0.00
20260504042501 19 165 6.4 8.0 0.00 0.00 0.00
20260504042002 19 159 6.4 8.0 0.00 0.00 0.00
20260504041502 19 145 6.4 8.0 0.00 0.00 0.00
20260504041000 19 150 8.0 9.7 0.00 0.00 0.00
20260504040500 19 156 11.3 9.7 0.00 0.00 0.00
20260504040001 19 153 9.7 8.0 0.00 0.00 0.00
20260504035458 19 165 12.9 9.7 0.00 0.00 0.00
20260504034959 19 146 12.9 12.9 0.00 0.00 0.00
20260504034459 20 138 12.9 12.9 0.00 0.00 0.00
20260504033957 19 135 11.3 17.7 0.00 0.00 0.00
20260504033457 20 128 11.3 12.9 0.00 0.00 0.00
20260504032958 19 197 8.0 8.0 0.00 0.00 0.00
20260504032455 20 163 9.7 8.0 0.00 0.00 0.00
20260504031956 20 145 9.7 12.9 0.00 0.00 0.00
20260504031456 20 165 11.3 9.7 0.00 0.00 0.00
20260504030954 20 174 9.7 9.7 0.00 0.00 0.00
20260504030454 20 124 9.7 9.7 0.00 0.00 0.00
20260504025954 20 134 11.3 9.7 0.00 0.00 0.00
20260504025452 20 142 11.3 12.9 0.00 0.00 0.00
20260504024952 20 155 9.7 9.7 0.00 0.00 0.00
20260504024453 20 141 9.7 11.3 0.00 0.00 0.00
20260504023950 21 166 9.7 11.3 0.00 0.00 0.00
20260504023451 21 142 11.3 12.9 0.00 0.00 0.00
20260504022951 21 129 9.7 11.3 0.00 0.00 0.00
20260504022449 21 141 11.3 9.7 0.00 0.00 0.00
20260504021949 21 145 11.3 12.9 0.00 0.00 0.00
20260504021450 21 128 12.9 9.7 0.00 0.00 0.00
20260504020947 21 134 11.3 12.9 0.00 0.00 0.00
20260504020448 21 139 11.3 14.5 0.00 0.00 0.00
20260504015948 21 153 11.3 8.0 0.00 0.00 0.00
20260504015445 21 120 11.3 12.9 0.00 0.00 0.00
20260504014946 21 145 9.7 14.5 0.00 0.00 0.00
20260504014446 21 145 9.7 12.9 0.00 0.00 0.00
20260504013944 22 159 11.3 11.3 0.00 0.00 0.00
20260504013444 22 155 11.3 11.3 0.00 0.00 0.00
20260504012945 22 153 11.3 8.0 0.00 0.00 0.00
20260504012442 22 141 11.3 16.1 0.00 0.00 0.00
20260504011943 22 145 14.5 11.3 0.00 0.00 0.00
20260504010941 22 145 11.3 14.5 0.00 0.00 0.00
20260504010441 22 173 16.1 11.3 0.00 0.00 0.00
20260504005941 22 153 16.1 14.5 0.00 0.00 0.00
20260504005439 22 131 16.1 16.1 0.00 0.00 0.00
20260504004939 23 155 16.1 11.3 0.00 0.00 0.00
20260504004440 23 186 19.3 17.7 0.00 0.00 0.00
20260504003937 23 152 14.5 14.5 0.00 0.00 0.00
20260504003437 23 160 16.1 12.9 0.00 0.00 0.00
20260504002938 23 156 16.1 17.7 0.00 0.00 0.00
20260504002435 23 180 9.7 11.3 0.00 0.00 0.00
20260504001936 23 150 12.9 11.3 0.00 0.00 0.00
20260504001436 23 120 16.1 12.9 0.00 0.00 0.00
20260504000933 23 152 16.1 14.5 0.00 0.00 0.00
20260504000434 23 146 16.1 14.5 0.00 0.00 0.00
20260503235934 24 125 16.1 12.9 0.00 0.00 0.00
20260503235432 24 128 19.3 20.9 0.00 0.00 0.00
20260503234932 24 107 19.3 16.1 0.00 0.00 0.00
20260503234432 24 179 12.9 19.3 0.00 0.00 0.00
20260503233930 24 131 14.5 20.9 0.00 0.00 0.00
20260503233430 24 129 16.1 17.7 0.00 0.00 0.00
20260503232931 24 139 17.7 17.7 0.00 0.00 0.00
20260503232428 25 141 20.9 12.9 0.00 0.00 0.00
20260503231929 25 155 16.1 16.1 0.00 0.00 0.00
20260503231429 25 167 17.7 16.1 0.00 0.00 0.00
20260503230927 25 127 12.9 12.9 0.00 0.00 0.00
20260503230427 25 128 14.5 12.9 0.00 0.00 0.00
20260503225927 25 142 17.7 17.7 0.00 0.00 0.00
20260503225425 25 146 20.9 16.1 0.00 0.00 0.00
20260503224926 25 159 14.5 17.7 0.00 0.00 0.00
20260503224426 25 127 17.7 19.3 0.00 0.00 0.00
20260503223923 25 125 20.9 16.1 0.00 0.00 0.00
20260503223424 25 128 19.3 17.7 0.00 0.00 0.00
20260503222924 25 149 12.9 14.5 0.00 0.00 0.00
20260503222422 24 150 20.9 16.1 0.00 0.00 0.00
20260503221922 25 150 14.5 17.7 0.00 0.00 0.00
20260503221422 25 129 17.7 22.5 0.00 0.00 0.00
20260503220920 25 166 16.1 16.1 0.00 0.00 0.00
20260503220420 25 136 16.1 19.3 0.00 0.00 0.00
20260503215921 25 159 14.5 14.5 0.00 0.00 0.00
20260503215418 25 129 20.9 24.1 0.00 0.00 0.00
20260503214919 25 97 17.7 14.5 0.00 0.00 0.00
20260503214419 25 142 20.9 20.9 0.00 0.00 0.00
20260503213917 25 105 20.9 19.3 0.00 0.00 0.00
20260503213417 25 148 19.3 16.1 0.00 0.00 0.00
20260503212918 25 110 17.7 17.7 0.00 0.00 0.00
20260503212415 25 142 16.1 20.9 0.00 0.00 0.00
20260503211916 25 120 24.1 17.7 0.00 0.00 0.00
20260503211416 26 117 17.7 27.4 0.00 0.00 0.00
20260503210915 27 153 14.5 14.5 0.00 0.00 0.00
20260503210414 27 167 14.5 11.3 0.00 0.00 0.00
20260503205914 27 127 17.7 16.1 0.00 0.00 0.00
20260503205412 27 183 14.5 14.5 0.00 0.00 0.00
20260503204912 26 176 19.3 11.3 0.00 0.00 0.00
20260503204413 26 195 16.1 11.3 0.00 0.00 0.00
20260503203910 26 180 14.5 14.5 0.00 0.00 0.00
20260503203411 26 156 19.3 22.5 0.00 0.00 0.00
20260503202911 27 176 12.9 19.3 0.00 0.00 0.00
20260503202409 26 124 6.4 3.2 0.00 0.00 0.00
20260503201909 26 187 16.1 14.5 0.00 0.00 0.00
20260503201409 26 105 20.9 19.3 0.00 0.00 0.00
20260503200907 26 135 12.9 14.5 0.00 0.00 0.00
20260503200407 26 118 20.9 17.7 0.00 0.00 0.00
20260503195908 26 183 12.9 17.7 0.00 0.00 0.00
20260503195405 26 177 16.1 16.1 0.00 0.00 0.00
20260503194906 26 159 16.1 20.9 0.00 0.00 0.00
20260503194406 26 136 16.1 22.5 0.00 0.00 0.00
20260503193904 25 138 12.9 16.1 0.00 0.00 0.00
20260503193404 25 134 14.5 17.7 0.00 0.00 0.00
20260503192904 25 162 11.3 12.9 0.00 0.00 0.00
20260503192402 26 128 16.1 14.5 0.00 0.00 0.00
20260503191902 26 186 20.9 20.9 0.00 0.00 0.00
20260503191403 26 118 16.1 16.1 0.00 0.00 0.00
20260503190900 25 129 22.5 17.7 0.00 0.00 0.00
20260503190401 25 146 17.7 16.1 0.00 0.00 0.00
20260503185901 25 145 16.1 14.5 0.00 0.00 0.00
20260503185359 25 117 16.1 12.9 0.00 0.00 0.00
20260503184859 26 135 12.9 12.9 0.00 0.00 0.00
20260503184359 25 184 19.3 12.9 0.00 0.00 0.00
20260503183857 26 152 16.1 24.1 0.00 0.00 0.00
20260503183357 25 138 17.7 19.3 0.00 0.00 0.00
20260503182857 25 198 22.5 16.1 0.00 0.00 0.00
20260503182355 25 129 16.1 19.3 0.00 0.00 0.00
20260503181855 25 134 12.9 14.5 0.00 0.00 0.00
20260503181356 25 118 22.5 16.1 0.00 0.00 0.00
20260503180853 25 153 8.0 4.8 0.00 0.00 0.00
20260503180354 25 200 14.5 16.1 0.00 0.00 0.00
20260503175854 25 134 16.1 16.1 0.00 0.00 0.00
20260503175352 23 120 16.1 16.1 0.00 0.00 0.00
20260503174852 24 108 20.9 14.5 0.00 0.00 0.00
20260503174352 25 122 12.9 24.1 0.00 0.00 0.00
20260503173850 25 193 17.7 16.1 0.00 0.00 0.00
20260503173350 24 149 17.7 14.5 0.00 0.00 0.00
20260503172851 25 190 17.7 17.7 0.00 0.00 0.00
20260503172348 25 173 17.7 12.9 0.00 0.00 0.00
20260503171848 24 203 14.5 14.5 0.00 0.00 0.00
20260503171349 24 200 16.1 22.5 0.00 0.00 0.00
20260503170846 24 169 17.7 17.7 0.00 0.00 0.00
20260503170347 23 156 17.7 12.9 0.00 0.00 0.00
20260503150834 21 194 12.9 12.9 0.00 0.00 0.00
20260503150334 20 197 11.3 11.3 0.00 0.00 0.00
20260503131323 18 11 0.0 0.0 0.00 0.18 0.00
20260503130820 18 11 0.0 0.0 0.00 0.18 0.00